Miscellaneous Local Product
Issued by NWS Hastings, NE

Home | Current Version | Previous Version | Graphics & Text | Print | Product List | Glossary On
Versions: 1 2 3 4 5 6 7 8 9 10 11 12 13 14 15 16 17 18 19 20 21 22 23 24 25 26 27 28 29 30 31 32 33 34 35 36 37 38 39 40 41 42 43 44 45 46 47 48 49 50
000
AXUS43 KGID 241902
MISGRI

GID CWA HOURLY WEATHER ROUNDUP
NATIONAL WEATHER SERVICE HASTINGS NE
200 PM CDT THU JUL 24 2014

NOTE: "FAIR" INDICATES FEW OR NO CLOUDS BELOW 12,000 FEET WITH NO
SIGNIFICANT WEATHER AND/OR OBSTRUCTIONS TO VISIBILITY.

...SOUTH CENTRAL NEBRASKA...

CITY           SKY/WX    TMP DP  RH WIND       PRES   REMARKS
GRAND ISLAND   SUNNY     84  67  56 S22G29    30.00F
HASTINGS       SUNNY     86  63  45 S18G26    30.00F
KEARNEY        SUNNY     88  70  55 SE21G30   29.98  HX  92
ORD            MOSUNNY   84  68  58 S22G32    29.94F
YORK           SUNNY     82  68  61 SE17G26   30.02F
AURORA         SUNNY     83  67  59 SE20G26   30.00F
LEXINGTON      SUNNY     89  70  53 S23       29.95F HX  94
HOLDREGE       SUNNY     88  67  48 S18G29    29.97F HX  91
HEBRON         SUNNY     85  63  46 SE17G23   30.02F

...NEBRASKA PANHANDLE...

CITY           SKY/WX    TMP DP  RH WIND       PRES   REMARKS
CHADRON        MOSUNNY  104  51  17 SW14      29.81F HX 101
ALLIANCE       MOSUNNY  102  44  14 W15G23    29.91F HX  98
SCOTTSBLUFF    MOSUNNY   99  53  21 SW9       29.93F HX  96
SIDNEY         SUNNY    101  46  15 VRB5G17   29.99F HX  97

...WESTERN AND NORTH CENTRAL NEBRASKA...

CITY           SKY/WX    TMP DP  RH WIND       PRES   REMARKS
VALENTINE      SUNNY     97  66  36 S26G32    29.81F HX 100
AINSWORTH      SUNNY     89  66  45 S29G35    29.85F HX  92
ONEILL         SUNNY     85  63  47 S28G38    29.91F
BROKEN BOW     SUNNY     88  68  51 S23G31    29.94F HX  91
IMPERIAL       SUNNY    102  41  12 S25G32    29.92F HX  97
NORTH PLATTE   SUNNY     93  67  42 S14       29.91F HX  96
MCCOOK         SUNNY     98  67  36 S18G24    29.92F HX 102

...EASTERN NEBRASKA...

CITY           SKY/WX    TMP DP  RH WIND       PRES   REMARKS
NORFOLK        SUNNY     83  63  50 S23G36    29.96F
SO SIOUX CITY  PTSUNNY   77  63  61 E15       30.05R
TEKAMAH        PTSUNNY   82  62  50 S16G25    30.02F
COLUMBUS       SUNNY     66  64  94 S21G28    30.00F
ALBION         SUNNY     81  64  56 S24G30    29.97F
OMAHA EPPLEY   MOSUNNY   81  60  48 S18G28    30.02F
OFFUTT AFB     SUNNY     82  63  52 S20G25    30.03F
MILLARD        SUNNY     80  62  54 S17G23    30.02F
LINCOLN        SUNNY     85  61  44 S23G30    30.02F
NEBRASKA CITY  SUNNY     80  61  52 S18G25    30.05F
BEATRICE       SUNNY     82  65  57 SE17G23   30.04F
FALLS CITY     MOSUNNY   82  62  50 SE12G24   30.07F

...NORTHERN KANSAS...

CITY           SKY/WX    TMP DP  RH WIND       PRES   REMARKS
GOODLAND       SUNNY     98  45  16 S18G30    30.00F HX  94
HILL CITY        N/A     96  68  39 S18G29    29.96  HX 101
NORTON         CLEAR     95  61  31 SE17      29.95F HX  95
PHILLIPSBURG   SUNNY     93  64  38 S16G23    29.97F HX  95
SMITH CENTER   SUNNY     91  64  40 SE22G31   29.98F HX  93
HAYS           SUNNY     72  68  88 S23       29.99F
RUSSELL        SUNNY     90  69  50 S22G32    29.99F HX  94
CONCORDIA      SUNNY     86  67  52 SE22G30   30.02F
SALINA         SUNNY     93  65  39 S15       30.02F HX  95
TOPEKA         SUNNY     86  61  42 SE14      30.09F



USA.gov is the U.S. government's official web portal to all federal, state and local government web resources and services.